Time,TemperatureF,DewpointF,PressureIn,WindDirection,WindDirectionDegrees,WindSpeedMPH,WindSpeedGustMPH,Humidity,HourlyPrecipIn,Conditions,Clouds,dailyrainin,SoftwareType,DateUTC
2013-04-15 00:00:00,59.2,38.9,30.09,West,270,1.1,0.0,47,0.00,CLR,,0.00,WeatherDisplay:10.37,2013-04-15 04:00:00,
2013-04-15 00:01:00,59.2,39.5,30.09,North,0,1.1,1.1,48,0.00,CLR,,0.00,WeatherDisplay:10.37,2013-04-15 04:01:00,
2013-04-15 00:06:00,59.4,39.7,30.09,NW,315,5.8,0.0,48,0.00,CLR,,0.00,WeatherDisplay:10.37,2013-04-15 04:06:00,
2013-04-15 00:11:00,59.2,40.0,30.09,NW,315,2.3,2.3,49,0.00,CLR,,0.00,WeatherDisplay:10.37,2013-04-15 04:11:00,
2013-04-15 00:17:00,59.2,40.0,30.09,NW,315,1.1,0.0,49,0.00,CLR,,0.00,WeatherDisplay:10.37,2013-04-15 04:17:00,
2013-04-15 00:22:00,59.2,41.1,30.09,NW,315,2.3,2.3,51,0.00,CLR,,0.00,WeatherDisplay:10.37,2013-04-15 04:22:00,
2013-04-15 00:27:00,59.0,41.4,30.10,SW,225,2.3,0.0,52,0.00,CLR,,0.00,WeatherDisplay:10.37,2013-04-15 04:27:00,
2013-04-15 00:32:00,59.0,42.4,30.09,NE,45,2.3,0.0,54,0.00,CLR,,0.00,WeatherDisplay:10.37,2013-04-15 04:32:00,
2013-04-15 00:37:00,59.0,42.4,30.10,NE,45,1.1,1.1,54,0.00,CLR,,0.00,WeatherDisplay:10.37,2013-04-15 04:37:00,
2013-04-15 00:43:00,58.8,42.7,30.10,NW,315,3.5,0.0,55,0.00,CLR,,0.00,WeatherDisplay:10.37,2013-04-15 04:43:00,
2013-04-15 00:48:00,58.8,42.7,30.10,SW,225,4.6,0.0,55,0.00,CLR,,0.00,WeatherDisplay:10.37,2013-04-15 04:48:00,
2013-04-15 00:53:00,58.8,42.7,30.10,North,0,1.1,0.0,55,0.00,CLR,,0.00,WeatherDisplay:10.37,2013-04-15 04:53:00,
2013-04-15 00:58:00,58.8,43.1,30.10,SW,225,1.1,0.0,56,0.00,CLR,,0.00,WeatherDisplay:10.37,2013-04-15 04:58:00,
2013-04-15 01:03:00,59.0,42.8,30.10,East,90,3.5,3.5,55,0.00,CLR,,0.00,WeatherDisplay:10.37,2013-04-15 05:03:00,
2013-04-15 01:08:00,59.0,42.8,30.10,South,180,1.1,0.0,55,0.00,CLR,,0.00,WeatherDisplay:10.37,2013-04-15 05:08:00,
2013-04-15 01:13:00,58.8,42.7,30.10,NW,315,1.1,0.0,55,0.00,CLR,,0.00,WeatherDisplay:10.37,2013-04-15 05:13:00,
2013-04-15 01:18:00,58.6,43.0,30.10,NW,315,3.5,0.0,56,0.00,CLR,,0.00,WeatherDisplay:10.37,2013-04-15 05:18:00,
2013-04-15 01:23:00,58.6,42.5,30.10,SW,225,1.1,0.0,55,0.00,CLR,,0.00,WeatherDisplay:10.37,2013-04-15 05:23:00,
2013-04-15 01:28:00,58.5,42.8,30.10,West,270,1.1,0.0,56,0.00,CLR,,0.00,WeatherDisplay:10.37,2013-04-15 05:28:00,
2013-04-15 01:33:00,58.5,42.8,30.10,NW,315,1.1,0.0,56,0.00,CLR,,0.00,WeatherDisplay:10.37,2013-04-15 05:33:00,
2013-04-15 01:38:00,58.3,43.1,30.11,North,0,1.1,0.0,57,0.00,CLR,,0.00,WeatherDisplay:10.37,2013-04-15 05:38:00,
2013-04-15 01:43:00,58.1,43.4,30.11,East,90,1.1,0.0,58,0.00,CLR,,0.00,WeatherDisplay:10.37,2013-04-15 05:43:00,
2013-04-15 01:48:00,58.1,42.9,30.10,South,180,1.1,0.0,57,0.00,CLR,,0.00,WeatherDisplay:10.37,2013-04-15 05:48:00,
2013-04-15 01:53:00,58.1,42.9,30.11,NW,315,1.1,0.0,57,0.00,CLR,,0.00,WeatherDisplay:10.37,2013-04-15 05:53:00,
2013-04-15 01:58:00,57.9,42.8,30.11,South,180,0.0,0.0,57,0.00,CLR,,0.00,WeatherDisplay:10.37,2013-04-15 05:58:00,
2013-04-15 02:03:00,57.7,43.1,30.11,North,0,1.1,0.0,58,0.00,OVC,,0.00,WeatherDisplay:10.37,2013-04-15 06:03:00,
2013-04-15 02:08:00,57.7,43.1,30.11,NW,315,1.6,1.6,58,0.00,OVC,,0.00,WeatherDisplay:10.37,2013-04-15 06:08:00,
2013-04-15 02:13:00,57.7,43.5,30.10,North,0,2.3,0.0,59,0.00,OVC,,0.00,WeatherDisplay:10.37,2013-04-15 06:13:00,
2013-04-15 02:18:00,57.6,43.3,30.10,NW,315,1.1,1.6,59,0.00,OVC,,0.00,WeatherDisplay:10.37,2013-04-15 06:18:00,
2013-04-15 02:23:00,57.6,43.3,30.10,NW,315,1.1,1.6,59,0.00,OVC,,0.00,WeatherDisplay:10.37,2013-04-15 06:23:00,
2013-04-15 02:28:00,57.4,43.2,30.10,NW,315,2.3,2.3,59,0.00,OVC,,0.00,WeatherDisplay:10.37,2013-04-15 06:28:00,
2013-04-15 02:33:00,57.2,43.4,30.10,North,0,1.1,1.1,60,0.00,OVC,,0.00,WeatherDisplay:10.37,2013-04-15 06:33:00,
2013-04-15 02:38:00,57.2,43.4,30.09,North,0,1.1,0.0,60,0.00,OVC,,0.00,WeatherDisplay:10.37,2013-04-15 06:38:00,
2013-04-15 02:43:00,57.0,43.3,30.09,North,0,1.1,0.0,60,0.00,OVC,,0.00,WeatherDisplay:10.37,2013-04-15 06:43:00,
2013-04-15 02:48:00,56.8,43.1,30.09,North,0,1.1,0.0,60,0.00,OVC,,0.00,WeatherDisplay:10.37,2013-04-15 06:48:00,
2013-04-15 02:53:00,56.8,43.5,30.10,West,270,1.1,0.0,61,0.00,OVC,,0.00,WeatherDisplay:10.37,2013-04-15 06:53:00,
2013-04-15 02:58:00,56.7,43.4,30.10,North,0,0.0,0.0,61,0.00,OVC,,0.00,WeatherDisplay:10.37,2013-04-15 06:58:00,
2013-04-15 03:03:00,56.7,44.2,30.10,North,0,2.3,2.3,63,0.00,SCT,,0.00,WeatherDisplay:10.37,2013-04-15 07:03:00,
2013-04-15 03:41:00,57.0,43.3,30.11,South,180,2.3,0.0,60,0.00,SCT,,0.00,WeatherDisplay:10.37,2013-04-15 07:41:00,
2013-04-15 03:42:00,57.0,43.3,30.11,South,180,2.3,0.0,60,0.00,SCT,,0.00,WeatherDisplay:10.37,2013-04-15 07:42:00,
2013-04-15 03:48:00,57.0,42.8,30.11,NW,315,0.0,0.0,59,0.00,SCT,,0.00,WeatherDisplay:10.37,2013-04-15 07:48:00,
2013-04-15 03:53:00,57.0,43.7,30.11,NW,315,1.1,0.0,61,0.00,SCT,,0.00,WeatherDisplay:10.37,2013-04-15 07:53:00,
2013-04-15 03:58:00,57.0,44.1,30.12,North,0,2.3,0.0,62,0.00,SCT,,0.00,WeatherDisplay:10.37,2013-04-15 07:58:00,
2013-04-15 04:03:00,57.0,44.1,30.12,North,0,3.5,3.5,62,0.00,-RA,,0.00,WeatherDisplay:10.37,2013-04-15 08:03:00,
2013-04-15 04:08:00,57.2,44.3,30.12,NW,315,1.1,1.6,62,0.00,-RA,,0.00,WeatherDisplay:10.37,2013-04-15 08:08:00,
2013-04-15 04:13:00,57.6,43.8,30.12,West,270,3.5,3.5,60,0.00,-RA,,0.00,WeatherDisplay:10.37,2013-04-15 08:13:00,
2013-04-15 04:19:00,57.7,43.9,30.13,SE,135,3.5,0.0,60,0.00,-RA,,0.00,WeatherDisplay:10.37,2013-04-15 08:19:00,
2013-04-15 04:24:00,57.7,43.9,30.12,North,0,4.6,4.6,60,0.00,-RA,,0.00,WeatherDisplay:10.37,2013-04-15 08:24:00,
2013-04-15 04:29:00,57.6,43.3,30.12,North,0,3.5,3.5,59,0.00,-RA,,0.00,WeatherDisplay:10.37,2013-04-15 08:29:00,
2013-04-15 04:34:00,57.6,43.8,30.12,North,0,3.5,3.5,60,0.00,-RA,,0.00,WeatherDisplay:10.37,2013-04-15 08:34:00,
2013-04-15 04:35:00,57.6,43.3,30.13,West,270,4.6,4.6,59,0.00,-RA,,0.00,WeatherDisplay:10.37,2013-04-15 08:35:00,
2013-04-15 04:40:00,57.4,43.6,30.13,North,0,3.5,3.5,60,0.00,-RA,,0.00,WeatherDisplay:10.37,2013-04-15 08:40:00,
2013-04-15 04:43:00,57.4,43.6,30.12,North,0,1.1,1.1,60,0.00,-RA,,0.00,WeatherDisplay:10.37,2013-04-15 08:43:00,
2013-04-15 04:48:00,57.2,43.4,30.13,North,0,3.5,3.5,60,0.00,-RA,,0.00,WeatherDisplay:10.37,2013-04-15 08:48:00,
2013-04-15 04:53:00,57.0,43.7,30.13,North,0,3.5,3.5,61,0.00,-RA,,0.00,WeatherDisplay:10.37,2013-04-15 08:53:00,
2013-04-15 04:58:00,56.8,43.5,30.13,NW,315,3.5,3.5,61,0.00,-RA,,0.00,WeatherDisplay:10.37,2013-04-15 08:58:00,
2013-04-15 05:03:00,56.8,44.0,30.13,North,0,4.6,4.6,62,0.00,OVC,,0.00,WeatherDisplay:10.37,2013-04-15 09:03:00,
2013-04-15 05:08:00,56.7,43.8,30.13,North,0,3.5,3.5,62,0.00,OVC,,0.00,WeatherDisplay:10.37,2013-04-15 09:08:00,
2013-04-15 05:13:00,56.7,43.8,30.13,North,0,3.5,3.5,62,0.00,OVC,,0.00,WeatherDisplay:10.37,2013-04-15 09:13:00,
2013-04-15 05:18:00,56.7,43.8,30.13,North,0,3.5,3.5,62,0.00,OVC,,0.00,WeatherDisplay:10.37,2013-04-15 09:18:00,
2013-04-15 05:23:00,56.5,43.6,30.13,SW,225,2.3,0.0,62,0.00,OVC,,0.00,WeatherDisplay:10.37,2013-04-15 09:23:00,
2013-04-15 05:28:00,56.3,43.9,30.13,South,180,1.1,1.1,63,0.00,OVC,,0.00,WeatherDisplay:10.37,2013-04-15 09:28:00,
2013-04-15 05:33:00,56.3,43.9,30.13,North,0,3.5,3.5,63,0.00,OVC,,0.00,WeatherDisplay:10.37,2013-04-15 09:33:00,
2013-04-15 05:38:00,56.1,44.1,30.13,North,0,4.6,4.6,64,0.00,OVC,,0.00,WeatherDisplay:10.37,2013-04-15 09:38:00,
2013-04-15 05:43:00,55.9,44.3,30.13,North,0,1.1,1.6,65,0.00,OVC,,0.00,WeatherDisplay:10.37,2013-04-15 09:43:00,
2013-04-15 05:48:00,55.9,44.3,30.14,North,0,3.5,3.5,65,0.00,OVC,,0.00,WeatherDisplay:10.37,2013-04-15 09:48:00,
2013-04-15 05:53:00,55.8,44.6,30.14,NW,315,2.3,2.3,66,0.00,OVC,,0.00,WeatherDisplay:10.37,2013-04-15 09:53:00,
2013-04-15 05:58:00,55.6,44.4,30.14,North,0,2.3,2.3,66,0.00,OVC,,0.00,WeatherDisplay:10.37,2013-04-15 09:58:00,
2013-04-15 06:03:00,55.4,44.2,30.14,North,0,1.1,0.0,66,0.00,OVC,,0.00,WeatherDisplay:10.37,2013-04-15 10:03:00,
2013-04-15 06:08:00,55.2,44.1,30.14,SE,135,2.3,0.0,66,0.00,OVC,,0.00,WeatherDisplay:10.37,2013-04-15 10:08:00,
2013-04-15 06:13:00,55.4,44.2,30.14,NW,315,1.1,1.1,66,0.00,OVC,,0.00,WeatherDisplay:10.37,2013-04-15 10:13:00,
2013-04-15 06:18:00,55.4,44.2,30.15,NE,45,3.5,3.5,66,0.00,OVC,,0.00,WeatherDisplay:10.37,2013-04-15 10:18:00,
2013-04-15 06:23:00,55.2,44.4,30.15,North,0,4.6,4.6,67,0.00,OVC,,0.00,WeatherDisplay:10.37,2013-04-15 10:23:00,
2013-04-15 06:28:00,55.2,44.8,30.15,North,0,3.5,3.5,68,0.00,OVC,,0.00,WeatherDisplay:10.37,2013-04-15 10:28:00,
2013-04-15 06:33:00,55.0,44.7,30.16,SW,225,2.3,2.3,68,0.00,OVC,,0.00,WeatherDisplay:10.37,2013-04-15 10:33:00,
2013-04-15 06:38:00,55.0,44.7,30.16,North,0,3.5,0.0,68,0.00,OVC,,0.00,WeatherDisplay:10.37,2013-04-15 10:38:00,
2013-04-15 06:43:00,54.9,44.9,30.16,SW,225,2.3,0.0,69,0.00,OVC,,0.00,WeatherDisplay:10.37,2013-04-15 10:43:00,
2013-04-15 06:48:00,54.9,44.9,30.16,West,270,1.1,0.0,69,0.00,OVC,,0.00,WeatherDisplay:10.37,2013-04-15 10:48:00,
2013-04-15 06:53:00,54.7,45.1,30.17,North,0,1.1,1.1,70,0.00,OVC,,0.00,WeatherDisplay:10.37,2013-04-15 10:53:00,
2013-04-15 06:58:00,54.5,44.9,30.17,South,180,1.1,0.0,70,0.00,OVC,,0.00,WeatherDisplay:10.37,2013-04-15 10:58:00,
2013-04-15 07:03:00,54.5,45.3,30.17,NW,315,1.1,0.0,71,0.00,-RA,,0.00,WeatherDisplay:10.37,2013-04-15 11:03:00,
2013-04-15 07:08:00,54.3,45.1,30.17,NE,45,1.1,0.0,71,0.00,-RA,,0.00,WeatherDisplay:10.37,2013-04-15 11:08:00,
2013-04-15 07:13:00,54.3,45.1,30.17,West,270,1.1,0.0,71,0.00,-RA,,0.00,WeatherDisplay:10.37,2013-04-15 11:13:00,
2013-04-15 07:18:00,54.3,45.5,30.18,West,270,1.1,0.0,72,0.00,-RA,,0.00,WeatherDisplay:10.37,2013-04-15 11:18:00,
2013-04-15 07:23:00,54.3,45.5,30.18,NW,315,1.1,0.0,72,0.00,-RA,,0.00,WeatherDisplay:10.37,2013-04-15 11:23:00,
2013-04-15 07:28:00,54.3,45.5,30.18,NW,315,1.1,0.0,72,0.00,-RA,,0.00,WeatherDisplay:10.37,2013-04-15 11:28:00,
2013-04-15 07:33:00,54.3,45.8,30.18,NW,315,2.3,0.0,73,0.00,-RA,,0.00,WeatherDisplay:10.37,2013-04-15 11:33:00,
2013-04-15 07:38:00,54.5,45.3,30.18,North,0,2.3,2.3,71,0.00,-RA,,0.00,WeatherDisplay:10.37,2013-04-15 11:38:00,
2013-04-15 07:43:00,54.7,45.5,30.18,North,0,3.5,3.5,71,0.00,-RA,,0.00,WeatherDisplay:10.37,2013-04-15 11:43:00,
2013-04-15 07:48:00,54.7,45.5,30.19,North,0,2.3,2.3,71,0.00,-RA,,0.00,WeatherDisplay:10.37,2013-04-15 11:48:00,
2013-04-15 07:53:00,54.9,45.6,30.18,North,0,0.0,0.0,71,0.00,-RA,,0.00,WeatherDisplay:10.37,2013-04-15 11:53:00,
2013-04-15 07:58:00,55.2,46.0,30.18,North,0,1.1,0.0,71,0.00,-RA,,0.00,WeatherDisplay:10.37,2013-04-15 11:58:00,
2013-04-15 08:04:00,55.4,45.4,30.19,North,0,3.5,3.5,69,0.00,OVC,,0.00,WeatherDisplay:10.37,2013-04-15 12:04:00,
2013-04-15 08:09:00,55.6,45.9,30.18,North,0,2.3,2.3,70,0.00,OVC,,0.00,WeatherDisplay:10.37,2013-04-15 12:09:00,
2013-04-15 08:14:00,55.8,46.1,30.18,North,0,3.5,3.5,70,0.00,OVC,,0.00,WeatherDisplay:10.37,2013-04-15 12:14:00,
2013-04-15 08:19:00,56.1,45.7,30.18,NW,315,3.5,3.5,68,0.00,OVC,,0.00,WeatherDisplay:10.37,2013-04-15 12:19:00,
2013-04-15 08:24:00,56.7,46.2,30.18,North,0,3.5,3.5,68,0.00,OVC,,0.00,WeatherDisplay:10.37,2013-04-15 12:24:00,
2013-04-15 08:29:00,57.2,46.3,30.18,NW,315,2.3,2.3,67,0.00,OVC,,0.00,WeatherDisplay:10.37,2013-04-15 12:29:00,
2013-04-15 08:34:00,57.9,46.6,30.18,North,0,2.3,2.3,66,0.00,OVC,,0.00,WeatherDisplay:10.37,2013-04-15 12:34:00,
2013-04-15 08:40:00,58.6,46.9,30.18,NE,45,3.5,3.5,65,0.00,OVC,,0.00,WeatherDisplay:10.37,2013-04-15 12:40:00,
2013-04-15 08:45:00,58.8,45.8,30.18,NW,315,2.3,2.3,62,0.00,OVC,,0.00,WeatherDisplay:10.37,2013-04-15 12:45:00,
2013-04-15 08:50:00,59.0,46.4,30.18,NW,315,4.6,4.6,63,0.00,OVC,,0.00,WeatherDisplay:10.37,2013-04-15 12:50:00,
2013-04-15 08:55:00,59.2,46.2,30.18,North,0,2.3,2.3,62,0.00,OVC,,0.00,WeatherDisplay:10.37,2013-04-15 12:55:00,
2013-04-15 09:00:00,59.2,46.2,30.18,North,0,3.5,0.0,62,0.00,OVC,,0.00,WeatherDisplay:10.37,2013-04-15 13:00:00,
2013-04-15 09:05:00,59.2,45.7,30.18,North,0,4.6,4.6,61,0.00,BKN,,0.00,WeatherDisplay:10.37,2013-04-15 13:05:00,
2013-04-15 09:10:00,59.2,46.2,30.18,North,0,3.5,3.5,62,0.00,BKN,,0.00,WeatherDisplay:10.37,2013-04-15 13:10:00,
2013-04-15 09:15:00,59.4,46.3,30.18,SE,135,3.5,0.0,62,0.00,BKN,,0.00,WeatherDisplay:10.37,2013-04-15 13:15:00,
2013-04-15 09:20:00,59.4,47.2,30.18,NW,315,4.6,4.6,64,0.00,BKN,,0.00,WeatherDisplay:10.37,2013-04-15 13:20:00,
2013-04-15 09:25:00,59.4,46.3,30.18,North,0,3.8,3.8,62,0.00,BKN,,0.00,WeatherDisplay:10.37,2013-04-15 13:25:00,
2013-04-15 09:30:00,59.5,46.5,30.18,North,0,3.5,3.8,62,0.00,BKN,,0.00,WeatherDisplay:10.37,2013-04-15 13:30:00,
2013-04-15 09:35:00,60.3,47.2,30.18,West,270,3.5,3.5,62,0.00,BKN,,0.00,WeatherDisplay:10.37,2013-04-15 13:35:00,
2013-04-15 09:40:00,60.6,47.9,30.18,North,0,2.3,2.3,63,0.00,BKN,,0.00,WeatherDisplay:10.37,2013-04-15 13:40:00,
2013-04-15 09:45:00,60.4,47.4,30.18,North,0,3.5,3.5,62,0.00,BKN,,0.00,WeatherDisplay:10.37,2013-04-15 13:45:00,
2013-04-15 09:50:00,61.0,47.4,30.18,East,90,2.3,0.0,61,0.00,BKN,,0.00,WeatherDisplay:10.37,2013-04-15 13:50:00,
2013-04-15 09:55:00,61.0,47.9,30.18,North,0,3.5,0.0,62,0.00,BKN,,0.00,WeatherDisplay:10.37,2013-04-15 13:55:00,
2013-04-15 10:00:00,61.2,48.5,30.19,SE,135,1.1,0.0,63,0.00,BKN,,0.00,WeatherDisplay:10.37,2013-04-15 14:00:00,
2013-04-15 10:05:00,61.0,48.7,30.19,SW,225,2.3,0.0,64,0.00,OVC,,0.00,WeatherDisplay:10.37,2013-04-15 14:05:00,
2013-04-15 10:10:00,61.2,48.9,30.19,NW,315,2.3,0.0,64,0.00,OVC,,0.00,WeatherDisplay:10.37,2013-04-15 14:10:00,
2013-04-15 10:15:00,61.0,49.5,30.19,NE,45,3.5,3.5,66,0.00,OVC,,0.00,WeatherDisplay:10.37,2013-04-15 14:15:00,
2013-04-15 10:21:00,61.2,49.7,30.19,North,0,3.5,3.5,66,0.00,OVC,,0.00,WeatherDisplay:10.37,2013-04-15 14:21:00,
2013-04-15 10:26:00,61.5,50.5,30.19,SE,135,2.3,2.3,67,0.00,OVC,,0.00,WeatherDisplay:10.37,2013-04-15 14:26:00,
2013-04-15 10:31:00,61.9,50.8,30.19,North,0,3.5,3.5,67,0.00,OVC,,0.00,WeatherDisplay:10.37,2013-04-15 14:31:00,
2013-04-15 10:36:00,61.5,49.6,30.19,North,0,4.6,4.6,65,0.00,OVC,,0.00,WeatherDisplay:10.37,2013-04-15 14:36:00,
2013-04-15 10:42:00,61.2,49.7,30.19,NW,315,3.5,3.5,66,0.00,OVC,,0.00,WeatherDisplay:10.37,2013-04-15 14:42:00,
2013-04-15 10:47:00,61.0,49.5,30.19,North,0,5.8,5.8,66,0.00,OVC,,0.00,WeatherDisplay:10.37,2013-04-15 14:47:00,
2013-04-15 10:52:00,61.0,49.9,30.19,North,0,4.6,4.6,67,0.00,OVC,,0.00,WeatherDisplay:10.37,2013-04-15 14:52:00,
2013-04-15 10:57:00,61.2,50.1,30.19,North,0,3.5,3.5,67,0.00,OVC,,0.00,WeatherDisplay:10.37,2013-04-15 14:57:00,
2013-04-15 11:02:00,60.8,49.0,30.19,NW,315,8.1,8.1,65,0.00,OVC,,0.00,WeatherDisplay:10.37,2013-04-15 15:02:00,
2013-04-15 11:07:00,60.8,49.8,30.19,North,0,4.6,4.6,67,0.00,OVC,,0.00,WeatherDisplay:10.37,2013-04-15 15:07:00,
2013-04-15 11:12:00,61.5,49.6,30.19,NW,315,3.5,3.5,65,0.00,OVC,,0.00,WeatherDisplay:10.37,2013-04-15 15:12:00,
2013-04-15 11:17:00,62.6,50.7,30.19,NW,315,3.5,3.5,65,0.00,BKN,,0.00,WeatherDisplay:10.37,2013-04-15 15:17:00,
2013-04-15 11:22:00,63.5,50.2,30.19,North,0,6.0,6.0,62,0.00,BKN,,0.00,WeatherDisplay:10.37,2013-04-15 15:22:00,
2013-04-15 11:27:00,63.9,50.6,30.19,North,0,1.1,1.6,62,0.00,BKN,,0.00,WeatherDisplay:10.37,2013-04-15 15:27:00,
2013-04-15 11:33:00,64.4,50.2,30.19,North,0,3.5,3.5,60,0.00,BKN,,0.00,WeatherDisplay:10.37,2013-04-15 15:33:00,
2013-04-15 11:38:00,63.1,50.8,30.19,NNW,338,8.1,8.1,64,0.00,BKN,,0.00,WeatherDisplay:10.37,2013-04-15 15:38:00,
2013-04-15 11:43:00,63.5,50.7,30.19,NW,315,3.5,3.8,63,0.00,BKN,,0.00,WeatherDisplay:10.37,2013-04-15 15:43:00,
2013-04-15 11:48:00,64.0,50.3,30.19,West,270,2.3,3.1,61,0.00,BKN,,0.00,WeatherDisplay:10.37,2013-04-15 15:48:00,
2013-04-15 11:53:00,64.9,50.7,30.19,NW,315,3.5,3.5,60,0.00,BKN,,0.00,WeatherDisplay:10.37,2013-04-15 15:53:00,
2013-04-15 11:58:00,65.7,51.8,30.19,NW,315,3.5,3.5,61,0.00,BKN,,0.00,WeatherDisplay:10.37,2013-04-15 15:58:00,
2013-04-15 12:03:00,66.2,51.0,30.19,North,0,3.5,3.5,58,0.00,BKN,,0.00,WeatherDisplay:10.37,2013-04-15 16:03:00,
2013-04-15 12:08:00,66.7,51.5,30.19,SE,135,4.6,4.6,58,0.00,BKN,,0.00,WeatherDisplay:10.37,2013-04-15 16:08:00,
2013-04-15 12:13:00,67.1,50.9,30.19,North,0,2.3,3.1,56,0.00,BKN,,0.00,WeatherDisplay:10.37,2013-04-15 16:13:00,
2013-04-15 12:18:00,66.4,50.7,30.19,SW,225,5.8,5.8,57,0.00,BKN,,0.00,WeatherDisplay:10.37,2013-04-15 16:18:00,
2013-04-15 12:23:00,66.0,50.8,30.19,South,180,3.5,0.0,58,0.00,BKN,,0.00,WeatherDisplay:10.37,2013-04-15 16:23:00,
2013-04-15 12:29:00,66.4,51.6,30.19,NNW,338,3.5,3.5,59,0.00,BKN,,0.00,WeatherDisplay:10.37,2013-04-15 16:29:00,
2013-04-15 12:34:00,67.3,52.0,30.18,South,180,3.5,3.5,58,0.00,BKN,,0.00,WeatherDisplay:10.37,2013-04-15 16:34:00,
2013-04-15 12:39:00,68.4,51.1,30.19,East,90,5.8,5.8,54,0.00,BKN,,0.00,WeatherDisplay:10.37,2013-04-15 16:39:00,
2013-04-15 12:44:00,67.8,51.1,30.19,East,90,8.1,8.1,55,0.00,BKN,,0.00,WeatherDisplay:10.37,2013-04-15 16:44:00,
2013-04-15 12:49:00,67.3,51.0,30.19,SE,135,3.5,3.5,56,0.00,BKN,,0.00,WeatherDisplay:10.37,2013-04-15 16:49:00,
2013-04-15 12:54:00,66.2,50.0,30.19,South,180,3.5,3.5,56,0.00,BKN,,0.00,WeatherDisplay:10.37,2013-04-15 16:54:00,
2013-04-15 12:59:00,66.0,50.8,30.19,SE,135,3.5,3.5,58,0.00,BKN,,0.00,WeatherDisplay:10.37,2013-04-15 16:59:00,
2013-04-15 13:04:00,66.2,51.0,30.19,NNW,338,3.5,3.5,58,0.00,BKN,,0.00,WeatherDisplay:10.37,2013-04-15 17:04:00,
2013-04-15 13:09:00,66.2,51.0,30.19,East,90,3.5,3.5,58,0.00,BKN,,0.00,WeatherDisplay:10.37,2013-04-15 17:09:00,
2013-04-15 13:14:00,65.5,50.3,30.19,NNW,338,2.3,2.3,58,0.00,BKN,,0.00,WeatherDisplay:10.37,2013-04-15 17:14:00,
2013-04-15 13:19:00,65.5,50.3,30.19,SW,225,2.3,0.0,58,0.00,BKN,,0.00,WeatherDisplay:10.37,2013-04-15 17:19:00,
2013-04-15 13:21:00,65.7,50.5,30.19,South,180,2.3,0.0,58,0.00,BKN,,0.00,WeatherDisplay:10.37,2013-04-15 17:21:00,
2013-04-15 13:22:00,65.7,50.5,30.19,SE,135,3.5,3.5,58,0.00,BKN,,0.00,WeatherDisplay:10.37,2013-04-15 17:22:00,
2013-04-15 13:23:00,65.7,50.5,30.19,East,90,3.5,3.5,58,0.00,BKN,,0.00,WeatherDisplay:10.37,2013-04-15 17:23:00,
2013-04-15 13:26:00,65.7,50.5,30.19,South,180,2.3,2.3,58,0.00,BKN,,0.00,WeatherDisplay:10.37,2013-04-15 17:26:00,
2013-04-15 13:31:00,65.5,50.8,30.19,NE,45,3.5,3.5,59,0.00,BKN,,0.00,WeatherDisplay:10.37,2013-04-15 17:31:00,
2013-04-15 13:36:00,65.1,50.4,30.19,West,270,3.5,3.5,59,0.00,BKN,,0.00,WeatherDisplay:10.37,2013-04-15 17:36:00,
2013-04-15 13:41:00,65.5,51.2,30.19,South,180,1.1,0.0,60,0.00,BKN,,0.00,WeatherDisplay:10.37,2013-04-15 17:41:00,
2013-04-15 13:46:00,66.4,51.2,30.19,East,90,5.8,5.8,58,0.00,BKN,,0.00,WeatherDisplay:10.37,2013-04-15 17:46:00,
2013-04-15 13:51:00,66.6,50.8,30.18,South,180,3.5,3.5,57,0.00,BKN,,0.00,WeatherDisplay:10.37,2013-04-15 17:51:00,
2013-04-15 13:56:00,66.9,50.7,30.19,SE,135,4.6,4.6,56,0.00,BKN,,0.00,WeatherDisplay:10.37,2013-04-15 17:56:00,
2013-04-15 14:02:00,66.9,50.7,30.18,West,270,4.6,4.6,56,0.00,OVC,,0.00,WeatherDisplay:10.37,2013-04-15 18:02:00,
2013-04-15 14:07:00,66.4,49.7,30.19,NW,315,3.5,3.5,55,0.00,OVC,,0.00,WeatherDisplay:10.37,2013-04-15 18:07:00,
2013-04-15 14:12:00,66.0,50.3,30.19,NW,315,5.8,0.0,57,0.00,OVC,,0.00,WeatherDisplay:10.37,2013-04-15 18:12:00,
2013-04-15 14:17:00,66.0,50.3,30.19,East,90,1.1,1.1,57,0.00,OVC,,0.00,WeatherDisplay:10.37,2013-04-15 18:17:00,
2013-04-15 14:22:00,65.8,50.2,30.19,SW,225,4.6,4.6,57,0.00,OVC,,0.00,WeatherDisplay:10.37,2013-04-15 18:22:00,
2013-04-15 14:28:00,65.5,50.3,30.18,NW,315,4.6,4.6,58,0.00,OVC,,0.00,WeatherDisplay:10.37,2013-04-15 18:28:00,
2013-04-15 14:29:00,65.5,50.3,30.18,SE,135,6.9,6.9,58,0.00,OVC,,0.00,WeatherDisplay:10.37,2013-04-15 18:29:00,
2013-04-15 14:30:00,65.1,50.4,30.18,SE,135,6.9,6.9,59,0.00,OVC,,0.00,WeatherDisplay:10.37,2013-04-15 18:30:00,
2013-04-15 14:32:00,65.3,50.6,30.18,SE,135,8.1,8.1,59,0.00,OVC,,0.00,WeatherDisplay:10.37,2013-04-15 18:32:00,
2013-04-15 14:37:00,66.0,51.3,30.19,West,270,1.1,0.0,59,0.00,OVC,,0.00,WeatherDisplay:10.37,2013-04-15 18:37:00,
2013-04-15 14:42:00,66.7,51.5,30.18,North,0,1.1,0.0,58,0.00,OVC,,0.00,WeatherDisplay:10.37,2013-04-15 18:42:00,
2013-04-15 14:47:00,67.3,52.0,30.19,North,0,2.3,2.3,58,0.00,OVC,,0.00,WeatherDisplay:10.37,2013-04-15 18:47:00,
2013-04-15 14:52:00,66.7,51.5,30.19,NE,45,5.8,5.8,58,0.00,OVC,,0.00,WeatherDisplay:10.37,2013-04-15 18:52:00,
2013-04-15 14:57:00,66.9,51.7,30.18,SE,135,4.6,4.6,58,0.00,OVC,,0.00,WeatherDisplay:10.37,2013-04-15 18:57:00,
2013-04-15 15:02:00,67.6,51.9,30.19,South,180,2.3,2.3,57,0.00,OVC,,0.00,WeatherDisplay:10.37,2013-04-15 19:02:00,
2013-04-15 15:07:00,68.0,52.2,30.18,North,0,3.5,3.5,57,0.00,OVC,,0.00,WeatherDisplay:10.37,2013-04-15 19:07:00,
2013-04-15 15:12:00,67.8,52.5,30.18,North,0,4.6,4.6,58,0.00,OVC,,0.00,WeatherDisplay:10.37,2013-04-15 19:12:00,
2013-04-15 15:17:00,66.6,51.3,30.18,NW,315,10.4,10.4,58,0.00,OVC,,0.00,WeatherDisplay:10.37,2013-04-15 19:17:00,
2013-04-15 15:22:00,66.2,51.0,30.18,East,90,1.1,1.6,58,0.00,OVC,,0.00,WeatherDisplay:10.37,2013-04-15 19:22:00,
2013-04-15 15:27:00,66.4,51.6,30.18,NW,315,1.1,0.0,59,0.00,OVC,,0.00,WeatherDisplay:10.37,2013-04-15 19:27:00,
2013-04-15 15:32:00,66.0,52.2,30.18,North,0,5.8,5.8,61,0.00,OVC,,0.00,WeatherDisplay:10.37,2013-04-15 19:32:00,
2013-04-15 15:37:00,65.8,52.0,30.18,North,0,4.5,4.5,61,0.00,OVC,,0.00,WeatherDisplay:10.37,2013-04-15 19:37:00,
2013-04-15 15:42:00,65.8,51.6,30.18,West,270,3.5,3.5,60,0.00,OVC,,0.00,WeatherDisplay:10.37,2013-04-15 19:42:00,
2013-04-15 15:48:00,65.5,51.7,30.17,North,0,5.8,5.8,61,0.00,OVC,,0.00,WeatherDisplay:10.37,2013-04-15 19:48:00,
2013-04-15 15:53:00,65.5,52.1,30.17,North,0,8.1,8.1,62,0.00,OVC,,0.00,WeatherDisplay:10.37,2013-04-15 19:53:00,
2013-04-15 15:58:00,65.1,51.8,30.17,NW,315,5.8,5.8,62,0.00,OVC,,0.00,WeatherDisplay:10.37,2013-04-15 19:58:00,
2013-04-15 15:59:00,65.1,51.8,30.17,NW,315,5.8,5.8,62,0.00,OVC,,0.00,WeatherDisplay:10.37,2013-04-15 19:59:00,
2013-04-15 16:00:00,65.1,51.8,30.17,North,0,5.8,5.8,62,0.00,OVC,,0.00,WeatherDisplay:10.37,2013-04-15 20:00:00,
2013-04-15 16:01:00,64.9,51.6,30.17,North,0,5.8,5.8,62,0.00,OVC,,0.00,WeatherDisplay:10.37,2013-04-15 20:01:00,
2013-04-15 16:02:00,64.9,51.6,30.17,North,0,5.8,5.8,62,0.00,OVC,,0.00,WeatherDisplay:10.37,2013-04-15 20:02:00,
2013-04-15 16:03:00,64.9,51.6,30.17,North,0,5.8,5.8,62,0.00,OVC,,0.00,WeatherDisplay:10.37,2013-04-15 20:03:00,
2013-04-15 16:04:00,64.9,51.6,30.17,North,0,5.8,5.8,62,0.00,OVC,,0.00,WeatherDisplay:10.37,2013-04-15 20:04:00,
2013-04-15 16:05:00,65.1,51.8,30.16,WNW,292,5.8,5.8,62,0.00,OVC,,0.00,WeatherDisplay:10.37,2013-04-15 20:05:00,
2013-04-15 16:10:00,65.8,52.0,30.16,West,270,5.8,5.8,61,0.00,OVC,,0.00,WeatherDisplay:10.37,2013-04-15 20:10:00,
2013-04-15 16:15:00,65.8,51.6,30.16,North,0,8.1,8.1,60,0.00,OVC,,0.00,WeatherDisplay:10.37,2013-04-15 20:15:00,
2013-04-15 16:20:00,65.7,51.4,30.16,North,0,5.8,5.8,60,0.00,OVC,,0.00,WeatherDisplay:10.37,2013-04-15 20:20:00,
2013-04-15 16:25:00,65.5,50.8,30.17,NW,315,5.8,5.8,59,0.00,OVC,,0.00,WeatherDisplay:10.37,2013-04-15 20:25:00,
2013-04-15 16:30:00,65.1,50.9,30.17,North,0,3.5,3.5,60,0.00,OVC,,0.00,WeatherDisplay:10.37,2013-04-15 20:30:00,
2013-04-15 16:35:00,65.1,51.3,30.17,NW,315,3.5,3.5,61,0.00,OVC,,0.00,WeatherDisplay:10.37,2013-04-15 20:35:00,
2013-04-15 16:40:00,64.9,50.7,30.17,NW,315,3.5,3.5,60,0.00,OVC,,0.00,WeatherDisplay:10.37,2013-04-15 20:40:00,
2013-04-15 16:45:00,64.8,50.1,30.17,NW,315,4.6,4.6,59,0.00,OVC,,0.00,WeatherDisplay:10.37,2013-04-15 20:45:00,
2013-04-15 16:50:00,64.4,50.2,30.17,NW,315,5.8,5.8,60,0.00,OVC,,0.00,WeatherDisplay:10.37,2013-04-15 20:50:00,
2013-04-15 16:55:00,64.4,49.8,30.17,NW,315,4.6,4.6,59,0.00,OVC,,0.00,WeatherDisplay:10.37,2013-04-15 20:55:00,
2013-04-15 17:00:00,64.0,49.4,30.17,North,0,6.9,6.9,59,0.00,OVC,,0.00,WeatherDisplay:10.37,2013-04-15 21:00:00,
2013-04-15 17:05:00,64.2,49.6,30.17,North,0,6.9,6.9,59,0.00,OVC,,0.00,WeatherDisplay:10.37,2013-04-15 21:05:00,
2013-04-15 17:10:00,64.2,49.6,30.17,NNE,22,3.5,3.5,59,0.00,OVC,,0.00,WeatherDisplay:10.37,2013-04-15 21:10:00,
2013-04-15 17:15:00,64.2,49.1,30.18,North,0,5.8,5.8,58,0.00,OVC,,0.00,WeatherDisplay:10.37,2013-04-15 21:15:00,
2013-04-15 17:20:00,64.0,49.0,30.18,SW,225,5.8,0.0,58,0.00,OVC,,0.00,WeatherDisplay:10.37,2013-04-15 21:20:00,
2013-04-15 17:25:00,63.7,49.1,30.18,North,0,5.8,5.8,59,0.00,OVC,,0.00,WeatherDisplay:10.37,2013-04-15 21:25:00,
2013-04-15 17:30:00,63.3,49.2,30.18,NW,315,10.4,10.4,60,0.00,OVC,,0.00,WeatherDisplay:10.37,2013-04-15 21:30:00,
2013-04-15 17:35:00,63.1,49.0,30.18,NW,315,4.6,4.6,60,0.00,OVC,,0.00,WeatherDisplay:10.37,2013-04-15 21:35:00,
2013-04-15 17:40:00,63.1,49.0,30.18,North,0,3.5,3.5,60,0.00,OVC,,0.00,WeatherDisplay:10.37,2013-04-15 21:40:00,
2013-04-15 17:45:00,63.0,49.3,30.18,North,0,5.8,5.8,61,0.00,OVC,,0.00,WeatherDisplay:10.37,2013-04-15 21:45:00,
2013-04-15 17:50:00,62.6,49.4,30.18,North,0,6.9,6.9,62,0.00,OVC,,0.00,WeatherDisplay:10.37,2013-04-15 21:50:00,
2013-04-15 17:55:00,62.2,49.5,30.19,North,0,4.6,4.6,63,0.00,OVC,,0.00,WeatherDisplay:10.37,2013-04-15 21:55:00,
2013-04-15 18:00:00,61.9,49.6,30.19,NW,315,5.8,5.8,64,0.00,OVC,,0.00,WeatherDisplay:10.37,2013-04-15 22:00:00,
2013-04-15 18:05:00,61.9,49.6,30.19,SW,225,1.1,1.1,64,0.00,OVC,,0.00,WeatherDisplay:10.37,2013-04-15 22:05:00,
2013-04-15 18:10:00,61.7,49.8,30.19,North,0,3.5,3.8,65,0.00,OVC,,0.00,WeatherDisplay:10.37,2013-04-15 22:10:00,
2013-04-15 18:15:00,61.7,50.2,30.19,North,0,4.6,4.6,66,0.00,OVC,,0.00,WeatherDisplay:10.37,2013-04-15 22:15:00,
2013-04-15 18:20:00,61.5,50.5,30.19,NW,315,3.5,3.5,67,0.00,OVC,,0.00,WeatherDisplay:10.37,2013-04-15 22:20:00,
2013-04-15 18:25:00,61.5,50.5,30.19,North,0,5.8,5.8,67,0.00,OVC,,0.00,WeatherDisplay:10.37,2013-04-15 22:25:00,
2013-04-15 18:30:00,61.7,51.0,30.19,North,0,3.5,3.5,68,0.00,OVC,,0.00,WeatherDisplay:10.37,2013-04-15 22:30:00,
2013-04-15 18:35:00,61.7,51.0,30.19,North,0,5.8,5.8,68,0.00,OVC,,0.00,WeatherDisplay:10.37,2013-04-15 22:35:00,
2013-04-15 18:40:00,61.7,51.4,30.19,SW,225,3.5,3.5,69,0.00,OVC,,0.00,WeatherDisplay:10.37,2013-04-15 22:40:00,
2013-04-15 18:45:00,61.5,51.3,30.19,North,0,3.5,3.5,69,0.00,OVC,,0.00,WeatherDisplay:10.37,2013-04-15 22:45:00,
2013-04-15 18:50:00,61.2,50.9,30.19,North,0,5.8,5.8,69,0.00,OVC,,0.00,WeatherDisplay:10.37,2013-04-15 22:50:00,
2013-04-15 18:55:00,61.2,51.3,30.19,North,0,2.3,0.0,70,0.00,OVC,,0.00,WeatherDisplay:10.37,2013-04-15 22:55:00,
2013-04-15 19:00:00,61.2,51.3,30.19,North,0,3.5,3.5,70,0.00,OVC,,0.00,WeatherDisplay:10.37,2013-04-15 23:00:00,
2013-04-15 19:05:00,61.0,51.1,30.19,North,0,3.5,3.5,70,0.00,OVC,,0.00,WeatherDisplay:10.37,2013-04-15 23:05:00,
2013-04-15 19:10:00,60.8,51.3,30.20,North,0,5.8,5.8,71,0.00,OVC,,0.00,WeatherDisplay:10.37,2013-04-15 23:10:00,
2013-04-15 19:15:00,60.6,51.2,30.20,NW,315,4.6,4.6,71,0.00,OVC,,0.00,WeatherDisplay:10.37,2013-04-15 23:15:00,
2013-04-15 19:20:00,60.6,51.2,30.20,North,0,3.5,0.0,71,0.00,OVC,,0.00,WeatherDisplay:10.37,2013-04-15 23:20:00,
2013-04-15 19:25:00,60.4,51.0,30.20,NW,315,5.8,5.8,71,0.00,OVC,,0.00,WeatherDisplay:10.37,2013-04-15 23:25:00,
2013-04-15 19:30:00,60.3,51.2,30.20,North,0,5.8,5.8,72,0.00,OVC,,0.00,WeatherDisplay:10.37,2013-04-15 23:30:00,
2013-04-15 19:35:00,60.3,51.2,30.21,North,0,3.5,3.5,72,0.00,OVC,,0.00,WeatherDisplay:10.37,2013-04-15 23:35:00,
2013-04-15 19:40:00,60.1,51.0,30.20,North,0,5.8,5.8,72,0.00,OVC,,0.00,WeatherDisplay:10.37,2013-04-15 23:40:00,
2013-04-15 19:45:00,59.9,50.8,30.20,South,180,4.6,4.6,72,0.00,OVC,,0.00,WeatherDisplay:10.37,2013-04-15 23:45:00,
2013-04-15 19:50:00,59.9,50.8,30.20,SW,225,3.5,0.0,72,0.00,OVC,,0.00,WeatherDisplay:10.37,2013-04-15 23:50:00,
2013-04-15 19:55:00,59.7,50.7,30.20,NW,315,2.3,0.0,72,0.00,OVC,,0.00,WeatherDisplay:10.37,2013-04-15 23:55:00,
2013-04-15 20:00:00,59.7,51.0,30.21,North,0,2.3,2.3,73,0.00,OVC,,0.00,WeatherDisplay:10.37,2013-04-16 00:00:00,
2013-04-15 20:05:00,59.7,51.0,30.21,North,0,3.5,3.5,73,0.00,OVC,,0.00,WeatherDisplay:10.37,2013-04-16 00:05:00,
2013-04-15 20:10:00,59.5,50.9,30.21,North,0,3.5,3.5,73,0.00,OVC,,0.00,WeatherDisplay:10.37,2013-04-16 00:10:00,
2013-04-15 20:15:00,59.5,50.9,30.21,North,0,2.3,2.3,73,0.00,OVC,,0.00,WeatherDisplay:10.37,2013-04-16 00:15:00,
2013-04-15 20:20:00,59.4,51.1,30.21,North,0,3.5,3.5,74,0.00,OVC,,0.00,WeatherDisplay:10.37,2013-04-16 00:20:00,
2013-04-15 20:25:00,59.4,51.1,30.21,North,0,5.8,5.8,74,0.00,OVC,,0.00,WeatherDisplay:10.37,2013-04-16 00:25:00,
2013-04-15 20:30:00,59.2,50.9,30.21,ESE,112,3.1,3.1,74,0.00,OVC,,0.00,WeatherDisplay:10.37,2013-04-16 00:30:00,
2013-04-15 20:35:00,59.2,50.9,30.21,South,180,5.8,5.8,74,0.00,OVC,,0.00,WeatherDisplay:10.37,2013-04-16 00:35:00,
2013-04-15 20:40:00,59.2,50.9,30.21,North,0,4.6,4.6,74,0.00,OVC,,0.00,WeatherDisplay:10.37,2013-04-16 00:40:00,
2013-04-15 20:45:00,59.2,50.9,30.22,North,0,2.3,2.3,74,0.00,OVC,,0.00,WeatherDisplay:10.37,2013-04-16 00:45:00,
2013-04-15 20:50:00,59.2,50.9,30.22,North,0,5.8,5.8,74,0.00,OVC,,0.00,WeatherDisplay:10.37,2013-04-16 00:50:00,
2013-04-15 20:55:00,59.2,50.9,30.22,North,0,3.5,3.5,74,0.00,OVC,,0.00,WeatherDisplay:10.37,2013-04-16 00:55:00,
2013-04-15 21:00:00,59.0,50.7,30.23,NW,315,4.6,4.6,74,0.00,OVC,,0.00,WeatherDisplay:10.37,2013-04-16 01:00:00,
2013-04-15 21:05:00,59.0,50.7,30.23,West,270,4.6,4.6,74,0.00,OVC,,0.00,WeatherDisplay:10.37,2013-04-16 01:05:00,
2013-04-15 21:10:00,59.0,50.7,30.23,North,0,3.5,3.5,74,0.00,OVC,,0.00,WeatherDisplay:10.37,2013-04-16 01:10:00,
2013-04-15 21:15:00,59.0,50.7,30.23,North,0,3.5,3.5,74,0.00,OVC,,0.00,WeatherDisplay:10.37,2013-04-16 01:15:00,
2013-04-15 21:20:00,58.8,50.5,30.23,West,270,3.5,3.5,74,0.00,OVC,,0.00,WeatherDisplay:10.37,2013-04-16 01:20:00,
2013-04-15 21:25:00,58.8,50.5,30.23,West,270,4.6,4.6,74,0.00,OVC,,0.00,WeatherDisplay:10.37,2013-04-16 01:25:00,
2013-04-15 21:30:00,58.8,50.9,30.23,North,0,3.5,3.5,75,0.00,OVC,,0.00,WeatherDisplay:10.37,2013-04-16 01:30:00,
2013-04-15 21:35:00,58.6,50.7,30.22,NE,45,3.5,3.5,75,0.00,OVC,,0.00,WeatherDisplay:10.37,2013-04-16 01:35:00,
2013-04-15 21:40:00,58.5,50.9,30.23,NW,315,2.3,2.3,76,0.00,OVC,,0.00,WeatherDisplay:10.37,2013-04-16 01:40:00,
2013-04-15 21:45:00,58.5,51.3,30.23,NW,315,2.3,2.3,77,0.00,OVC,,0.00,WeatherDisplay:10.37,2013-04-16 01:45:00,
2013-04-15 21:50:00,58.3,51.4,30.23,South,180,3.5,3.5,78,0.00,OVC,,0.00,WeatherDisplay:10.37,2013-04-16 01:50:00,
2013-04-15 21:55:00,58.1,51.3,30.23,North,0,2.3,2.3,78,0.00,OVC,,0.00,WeatherDisplay:10.37,2013-04-16 01:55:00,
2013-04-15 22:00:00,57.9,51.4,30.23,NW,315,4.6,4.6,79,0.00,OVC,,0.00,WeatherDisplay:10.37,2013-04-16 02:00:00,
2013-04-15 22:05:00,57.7,51.6,30.23,NW,315,3.5,3.5,80,0.00,OVC,,0.00,WeatherDisplay:10.37,2013-04-16 02:05:00,
2013-04-15 22:10:00,57.7,51.9,30.23,East,90,2.3,2.3,81,0.00,OVC,,0.00,WeatherDisplay:10.37,2013-04-16 02:10:00,
2013-04-15 22:15:00,57.6,51.8,30.23,North,0,3.5,3.5,81,0.00,OVC,,0.00,WeatherDisplay:10.37,2013-04-16 02:15:00,
2013-04-15 22:20:00,57.4,51.9,30.23,NE,45,2.3,2.3,82,0.00,OVC,,0.00,WeatherDisplay:10.37,2013-04-16 02:20:00,
2013-04-15 22:25:00,57.4,51.9,30.24,North,0,3.5,3.5,82,0.00,OVC,,0.00,WeatherDisplay:10.37,2013-04-16 02:25:00,
2013-04-15 22:30:00,57.2,51.8,30.24,West,270,1.1,1.1,82,0.00,OVC,,0.00,WeatherDisplay:10.37,2013-04-16 02:30:00,
2013-04-15 22:35:00,57.0,52.2,30.24,NW,315,3.5,3.5,84,0.00,OVC,,0.00,WeatherDisplay:10.37,2013-04-16 02:35:00,
2013-04-15 22:40:00,57.0,52.2,30.24,NW,315,1.6,0.0,84,0.00,OVC,,0.00,WeatherDisplay:10.37,2013-04-16 02:40:00,
2013-04-15 22:45:00,56.8,52.1,30.24,East,90,1.1,0.0,84,0.00,OVC,,0.00,WeatherDisplay:10.37,2013-04-16 02:45:00,
2013-04-15 22:50:00,56.8,52.1,30.24,East,90,2.3,0.0,84,0.00,OVC,,0.00,WeatherDisplay:10.37,2013-04-16 02:50:00,
2013-04-15 22:55:00,56.8,52.1,30.24,South,180,1.1,0.0,84,0.00,OVC,,0.00,WeatherDisplay:10.37,2013-04-16 02:55:00,
2013-04-15 23:00:00,56.8,52.1,30.25,SE,135,2.3,0.0,84,0.00,OVC,,0.00,WeatherDisplay:10.37,2013-04-16 03:00:00,
2013-04-15 23:05:00,56.8,52.1,30.25,NW,315,1.1,0.0,84,0.00,OVC,,0.00,WeatherDisplay:10.37,2013-04-16 03:05:00,
2013-04-15 23:10:00,56.8,51.7,30.24,North,0,3.5,3.5,83,0.00,OVC,,0.00,WeatherDisplay:10.37,2013-04-16 03:10:00,
2013-04-15 23:15:00,56.8,51.7,30.24,NNW,338,1.1,1.1,83,0.00,OVC,,0.00,WeatherDisplay:10.37,2013-04-16 03:15:00,
2013-04-15 23:20:00,56.8,51.7,30.24,North,0,3.5,3.5,83,0.00,OVC,,0.00,WeatherDisplay:10.37,2013-04-16 03:20:00,
2013-04-15 23:25:00,57.0,51.6,30.24,North,0,3.5,0.0,82,0.00,OVC,,0.00,WeatherDisplay:10.37,2013-04-16 03:25:00,
2013-04-15 23:30:00,57.0,51.2,30.25,West,270,2.3,0.0,81,0.00,OVC,,0.00,WeatherDisplay:10.37,2013-04-16 03:30:00,
2013-04-15 23:35:00,57.0,51.2,30.24,North,0,2.3,0.0,81,0.00,OVC,,0.00,WeatherDisplay:10.37,2013-04-16 03:35:00,
2013-04-15 23:40:00,57.2,51.1,30.24,North,0,3.5,3.5,80,0.00,OVC,,0.00,WeatherDisplay:10.37,2013-04-16 03:40:00,
2013-04-15 23:45:00,57.2,51.1,30.25,South,180,1.6,0.0,80,0.00,OVC,,0.00,WeatherDisplay:10.37,2013-04-16 03:45:00,
2013-04-15 23:50:00,57.2,51.1,30.24,North,0,1.1,1.1,80,0.00,OVC,,0.00,WeatherDisplay:10.37,2013-04-16 03:50:00,
2013-04-15 23:55:00,57.2,50.7,30.24,NW,315,2.3,2.3,79,0.00,OVC,,0.00,WeatherDisplay:10.37,2013-04-16 03:55:00,